This is the latest recevied weather packets stored in our database for station/object KM4CBK. If no packets are shown the sender has not sent any weather packets the latest 10 day(s).
| Time | Temp. | Humidity | Pressure | Rain* | Wind** | Luminosity | Snow |
|---|---|---|---|---|---|---|---|
| 1777970656 | 10.56° C | 98% | 1013.2 hPa | 0 mm | - | 0 W/m² | - |
| 1777970354 | 10.56° C | 98% | 1013.2 hPa | 0 mm | - | 0 W/m² | - |
| 1777970051 | 11.11° C | 97% | 1013.2 hPa | 0 mm | - | 0 W/m² | - |
| 1777969747 | 11.11° C | 97% | 1013.2 hPa | 0 mm | - | 0 W/m² | - |
| 1777969443 | 11.11° C | 97% | 1013.3 hPa | 0 mm | - | 0 W/m² | - |
| 1777969141 | 11.11° C | 97% | 1013.3 hPa | 0 mm | - | 0 W/m² | - |
| 1777968837 | 11.11° C | 96% | 1013.6 hPa | 0 mm | - | 0 W/m² | - |
| 1777968534 | 11.11° C | 96% | 1012.9 hPa | 0 mm | - | 0 W/m² | - |
| 1777968230 | 11.11° C | 95% | 1013.3 hPa | 0 mm | - | 0 W/m² | - |
| 1777967925 | 11.67° C | 95% | 1013.1 hPa | 0 mm | - | 0 W/m² | - |
| 1777967622 | 11.67° C | 95% | 1013.2 hPa | 0 mm | - | 0 W/m² | - |
| 1777967320 | 11.67° C | 95% | 1013.1 hPa | 0 mm | - | 0 W/m² | - |
| 1777967017 | 11.67° C | 94% | 1013.2 hPa | 0 mm | - | 0 W/m² | - |
| 1777966714 | 11.67° C | 95% | 1013.3 hPa | 0 mm | - | 0 W/m² | - |
| 1777966412 | 11.67° C | 94% | 1013.3 hPa | 0 mm | - | 0 W/m² | - |
| 1777966109 | 11.67° C | 94% | 1013.1 hPa | 0 mm | - | 0 W/m² | - |
| 1777965805 | 12.22° C | 94% | 1013.2 hPa | 0 mm | - | 0 W/m² | - |
| 1777965501 | 11.67° C | 93% | 1013.1 hPa | 0 mm | - | 0 W/m² | - |
| 1777965197 | 12.22° C | 93% | 1013.1 hPa | 0 mm | - | 0 W/m² | - |
| 1777964896 | 12.22° C | 93% | 1013.1 hPa | 0 mm | - | 0 W/m² | - |
| 1777964592 | 12.22° C | 92% | 1013.3 hPa | 0 mm | - | 0 W/m² | - |
| 1777964287 | 12.22° C | 92% | 1013.3 hPa | 0 mm | - | 0 W/m² | - |
| 1777963984 | 12.78° C | 91% | 1013.5 hPa | 0 mm | - | 0 W/m² | - |
| 1777963681 | 12.78° C | 90% | 1013.5 hPa | 0 mm | - | 0 W/m² | - |
| 1777963378 | 12.78° C | 89% | 1013.2 hPa | 0 mm | - | 0 W/m² | - |
* Rain latest hour (hover to see other rain measurements)
** Current wind speed in m/s (hover to see current wind gust speed)